Location: San Bernardino
(34.1083°N, 117.2898°W)
Time: 15:45:41
(UTC+00:00)

Cosmos 1553 Rocket - Pass Details

Date: 13 April 2024
Orbit: 940 x 1008 km, 82.9° (Epoch: 27 May)

Event Time Altitude Azimuth Distance (km) Brightness Sun altitude
Rises 12:08:43 0° 348° (NNW) 3,699 7.2 -14.9°
Reaches altitude 10° 12:11:18 10° 345° (NNW) 2,738 6.4 -14.4°
Maximum altitude 12:17:24 56° 268° (W) 1,138 4.0 -13.2°
Drops below altitude 10° 12:23:22 10° 192° (SSW) 2,677 6.0 -12.1°
Sets 12:25:52 0° 188° (S) 3,610 6.7 -11.6°
